CW5917 Weather Reports


time (UTC)temp
F
wind
direction
speed
knots
gust
knots
rain 1hr
in
rain 24hr
in
rain mn
in
humidity
%
barometer
mb
20260504045529 55 227 3.5 5.2 0.00 0.02 0.02 55 1005.3
20260504045043 55 227 2.6 4.3 0.00 0.02 0.02 55 1005.3
20260504044021 56 227 2.6 3.5 0.00 0.02 0.02 54 1005.4
20260504043519 56 227 2.6 3.5 0.00 0.02 0.02 53 1005.4
20260504043032 56 227 2.6 3.5 0.00 0.02 0.02 53 1005.5
20260504042525 56 227 2.6 4.3 0.00 0.02 0.02 53 1005.3
20260504042035 57 227 3.5 4.3 0.00 0.02 0.02 52 1005.3
20260504041520 57 227 2.6 3.5 0.00 0.02 0.02 52 1005.3
20260504041051 58 252 2.6 2.6 0.00 0.02 0.02 51 1005.4
20260504040520 58 252 0.9 1.7 0.00 0.02 0.02 49 1005.4
20260504040030 58 252 0.9 1.7 0.00 0.02 0.02 49 1005.4
20260504035541 59 252 0.9 2.6 0.00 0.02 0.02 49 1005.4
20260504035020 59 252 1.7 2.6 0.00 0.02 0.02 49 1005.4
20260504034520 59 242 1.7 3.5 0.00 0.02 0.02 49 1005.3
20260504034031 60 242 1.7 3.5 0.00 0.02 0.02 50 1005.5
20260504033540 60 225 2.6 5.2 0.00 0.02 0.02 50 1005.5
20260504033035 60 225 2.6 5.2 0.00 0.02 0.02 49 1005.5
20260504032536 60 254 2.6 5.2 0.00 0.02 0.02 47 1005.5
20260504032018 60 262 2.6 5.2 0.00 0.02 0.02 47 1005.4
20260504031545 60 277 1.7 4.3 0.00 0.02 0.02 47 1005.5
20260504031052 60 268 2.6 4.3 0.00 0.02 0.02 47 1005.5
20260504030519 61 281 2.6 6.1 0.00 0.02 0.02 47 1005.5
20260504030020 61 291 3.5 6.1 0.00 0.02 0.02 47 1005.3
20260504025557 61 262 3.5 5.2 0.00 0.02 0.02 48 1005.3
20260504025026 61 256 2.6 5.2 0.00 0.02 0.02 48 1005.3
20260504024525 61 252 2.6 6.1 0.00 0.02 0.02 48 1005.3
20260504024046 61 261 3.5 6.1 0.00 0.02 0.02 48 1005.3
20260504023520 61 255 3.5 7.0 0.00 0.02 0.02 48 1005.4
20260504023055 61 266 3.5 7.0 0.00 0.02 0.02 48 1005.3
20260504022535 62 273 3.5 7.0 0.00 0.02 0.02 48 1005.3
20260504022051 62 258 2.6 7.0 0.00 0.02 0.02 48 1005.2
20260504021530 62 252 3.5 6.1 0.00 0.02 0.02 49 1005.1
20260504021021 62 249 3.5 6.1 0.00 0.02 0.02 49 1005.1
20260504020532 63 226 2.6 3.5 0.00 0.02 0.02 48 1005.0
20260504020022 63 227 2.6 5.2 0.00 0.02 0.02 48 1004.8
20260504015537 63 226 3.5 5.2 0.00 0.02 0.02 47 1004.8
20260504015018 63 234 4.3 5.2 0.00 0.02 0.02 46 1004.8
20260504014555 64 232 3.5 4.3 0.00 0.02 0.02 46 1004.8
20260504014037 64 234 2.6 3.5 0.00 0.02 0.02 45 1004.7
20260504013529 65 252 1.7 2.6 0.00 0.02 0.02 45 1004.5
20260504013038 65 252 0.9 2.6 0.00 0.02 0.02 44 1004.6
20260504012531 65 252 1.7 4.3 0.00 0.02 0.02 44 1004.5
20260504012038 65 252 2.6 4.3 0.00 0.02 0.02 43 1004.5
20260504011535 66 243 3.5 4.3 0.00 0.02 0.02 43 1004.6
20260504011032 66 247 2.6 3.5 0.00 0.02 0.02 42 1004.6
20260504010524 66 247 2.6 3.5 0.00 0.02 0.02 42 1004.6
20260504010034 67 247 1.7 3.5 0.00 0.02 0.02 41 1004.5
20260504005529 67 247 2.6 3.5 0.00 0.02 0.02 41 1004.5
20260504005018 67 247 1.7 4.3 0.00 0.02 0.02 41 1004.6
20260504004526 67 261 2.6 4.3 0.00 0.02 0.02 41 1004.6
20260504004029 68 245 2.6 6.1 0.00 0.02 0.02 41 1004.5
20260504003530 68 256 2.6 7.0 0.00 0.02 0.02 40 1004.6
20260504003048 68 242 4.3 7.8 0.00 0.02 0.02 40 1004.5
20260504002522 68 259 2.6 10.4 0.00 0.02 0.02 40 1004.5
20260504002025 69 226 4.3 10.4 0.00 0.02 0.02 40 1004.5
20260504001531 69 263 5.2 12.2 0.00 0.02 0.02 40 1004.5
20260504001021 69 244 7.0 12.2 0.00 0.02 0.02 39 1004.4
20260504000528 69 234 6.1 13.9 0.00 0.02 0.02 39 1004.4
20260504000019 70 249 7.8 13.9 0.00 0.02 0.02 38 1004.4
20260503235518 70 235 6.1 13.0 0.00 0.02 0.02 38 1004.4
20260503235018 70 238 6.1 11.3 0.00 0.02 0.02 39 1004.3
20260503234533 70 234 6.1 10.4 0.00 0.02 0.02 38 1004.3
20260503234018 70 216 7.0 15.6 0.00 0.02 0.02 38 1004.3
20260503233530 70 246 7.0 15.6 0.00 0.02 0.02 38 1004.3
20260503233021 70 288 7.0 12.2 0.00 0.02 0.02 39 1004.3
20260503232530 70 241 7.0 12.2 0.00 0.02 0.02 39 1004.5
20260503232018 70 261 7.0 13.9 0.00 0.02 0.02 39 1004.5
20260503231531 70 242 7.8 13.9 0.00 0.02 0.02 39 1004.5
20260503231028 71 244 8.7 12.2 0.00 0.02 0.02 39 1004.5
20260503230525 71 233 6.1 12.2 0.00 0.02 0.02 40 1004.5
20260503230026 71 236 7.0 12.2 0.00 0.02 0.02 39 1004.6
20260503225521 71 290 7.0 13.0 0.00 0.02 0.02 40 1004.6
20260503225033 71 255 7.0 13.0 0.00 0.02 0.02 40 1004.6
20260503224524 71 266 7.0 13.0 0.00 0.02 0.02 40 1004.6
20260503224020 71 234 4.3 16.5 0.00 0.02 0.02 41 1004.6
20260503223534 71 238 12.2 16.5 0.00 0.02 0.02 39 1004.5
20260503223032 71 231 9.6 22.6 0.00 0.02 0.02 40 1004.6
20260503222538 71 224 13.9 22.6 0.00 0.02 0.02 40 1004.5
20260503222033 70 231 9.6 16.5 0.00 0.02 0.02 40 1004.6
20260503221521 70 197 11.3 17.4 0.00 0.02 0.02 40 1004.7
20260503221020 71 229 11.3 13.9 0.00 0.02 0.02 41 1004.6
20260503220550 70 236 7.8 18.2 0.00 0.02 0.02 42 1004.7
20260503220057 71 227 10.4 18.2 0.00 0.02 0.02 41 1004.8
20260503215036 71 240 9.6 16.5 0.00 0.02 0.02 41 1004.8
20260503214518 71 243 8.7 15.6 0.00 0.02 0.02 41 1005.1
20260503214028 71 239 6.1 14.8 0.00 0.02 0.02 41 1004.9
20260503213522 70 263 7.8 15.6 0.00 0.02 0.02 42 1004.9
20260503213036 70 244 7.8 16.5 0.00 0.02 0.02 42 1005.0
20260503212532 70 228 11.3 18.2 0.00 0.02 0.02 41 1005.0
20260503212029 69 265 12.2 20.9 0.00 0.02 0.02 42 1005.0
20260503211531 69 232 11.3 19.1 0.00 0.02 0.02 42 1005.0
20260503211025 69 233 11.3 16.5 0.00 0.02 0.02 42 1005.1
20260503210540 69 282 12.2 18.2 0.00 0.02 0.02 41 1005.1
20260503210042 69 250 9.6 19.1 0.00 0.02 0.02 42 1005.2
20260503205535 69 232 9.6 20.0 0.00 0.02 0.02 43 1005.3
20260503205029 69 221 13.0 20.0 0.00 0.02 0.02 42 1005.3
20260503204533 69 269 9.6 21.7 0.00 0.02 0.02 44 1005.5
20260503204029 69 227 14.8 21.7 0.00 0.02 0.02 42 1005.4
20260503203543 69 232 8.7 20.9 0.00 0.02 0.02 44 1005.6
20260503203031 69 228 13.9 20.9 0.00 0.02 0.02 42 1005.7
20260503202521 69 230 12.2 17.4 0.00 0.02 0.02 41 1005.8
20260503202018 69 233 9.6 19.1 0.00 0.02 0.02 43 1005.9
20260503201533 69 242 13.0 19.1 0.00 0.02 0.02 42 1005.8
20260503201030 69 241 10.4 19.1 0.00 0.02 0.02 44 1005.8
20260503200523 68 258 9.6 21.7 0.00 0.02 0.02 44 1005.8
20260503200036 68 207 12.2 24.3 0.00 0.02 0.02 44 1005.9
20260503195550 68 239 14.8 24.3 0.00 0.02 0.02 42 1006.0
20260503195036 68 190 10.4 22.6 0.00 0.02 0.02 44 1006.2
20260503194521 68 223 13.9 22.6 0.00 0.02 0.02 43 1006.2
20260503194024 67 210 11.3 22.6 0.00 0.02 0.02 43 1006.3
20260503193531 67 202 13.0 22.6 0.00 0.02 0.02 44 1006.4
20260503193020 67 223 13.0 23.5 0.00 0.02 0.02 44 1006.5
20260503192552 67 227 15.6 23.5 0.00 0.02 0.02 43 1006.6
20260503192027 68 216 12.2 23.5 0.00 0.02 0.02 43 1006.6
20260503191524 68 236 15.6 23.5 0.00 0.02 0.02 44 1006.5
20260503191029 67 215 13.9 20.9 0.00 0.02 0.02 43 1006.5
20260503190523 67 242 10.4 20.0 0.00 0.02 0.02 44 1006.7
20260503190027 66 269 10.4 25.2 0.00 0.02 0.02 45 1006.7
20260503185517 66 236 14.8 25.2 0.00 0.02 0.02 43 1006.9
20260503185024 67 210 14.8 22.6 0.00 0.02 0.02 43 1007.0
20260503184517 66 226 15.6 22.6 0.00 0.02 0.02 43 1006.7
20260503184020 66 222 13.9 22.6 0.00 0.02 0.02 44 1006.9
20260503183555 66 200 13.9 22.6 0.00 0.02 0.02 44 1006.9
20260503183030 66 225 18.2 23.5 0.00 0.02 0.02 44 1007.0
20260503182542 66 227 11.3 27.8 0.00 0.02 0.02 47 1007.0
20260503182034 65 224 13.9 25.2 0.00 0.02 0.02 46 1007.0
20260503181522 65 215 17.4 25.2 0.00 0.02 0.02 46 1007.0
20260503181032 65 229 16.5 26.9 0.00 0.02 0.02 46 1007.1
20260503180523 65 223 15.6 21.7 0.00 0.02 0.02 49 1007.1
20260503180024 64 205 17.4 26.1 0.00 0.02 0.02 47 1007.3
20260503175557 64 250 14.8 26.1 0.00 0.02 0.02 50 1007.4
20260503175033 63 225 15.6 25.2 0.00 0.02 0.02 50 1007.4
20260503174532 63 226 17.4 25.2 0.00 0.02 0.02 50 1007.6
20260503174027 63 208 16.5 23.5 0.00 0.02 0.02 49 1007.8
20260503173519 63 211 13.0 25.2 0.00 0.02 0.02 50 1007.7
20260503173027 63 212 14.8 25.2 0.00 0.02 0.02 50 1007.7
20260503172520 62 219 14.8 25.2 0.00 0.02 0.02 51 1007.7
20260503172033 62 219 17.4 25.2 0.00 0.02 0.02 49 1007.8
20260503171529 62 204 14.8 25.2 0.00 0.02 0.02 50 1008.0
20260503171023 61 219 19.1 24.3 0.00 0.02 0.02 50 1008.0
20260503170522 61 227 17.4 26.9 0.00 0.02 0.02 49 1008.0
20260503150527 55 187 16.5 24.3 0.01 0.02 0.02 70 1009.4
20260503130548 52 229 10.4 16.5 0.00 0.00 0.00 66 1011.3
20260503110559 48 213 7.8 12.2 0.00 0.00 0.00 57 1011.5
20260503081532 47 217 7.8 13.9 0.00 0.00 0.00 57 1012.5
20260503081023 47 206 7.8 13.9 0.00 0.00 0.00 57 1012.6
20260503080521 47 227 8.7 15.6 0.00 0.00 0.00 57 1012.6
20260503072521 46 221 7.8 12.2 0.00 0.00 0.00 56 1012.8
20260503072018 46 225 7.8 14.8 0.00 0.00 0.00 56 1012.9
20260503071520 46 201 8.7 12.2 0.00 0.00 0.00 56 1013.0
20260503071053 46 217 7.8 12.2 0.00 0.00 0.00 56 1013.0
20260503070525 46 205 8.7 11.3 0.00 0.00 0.00 56 1013.1
20260503055020 47 209 7.8 12.2 0.00 0.00 0.00 54 1013.8
20260503054527 47 210 6.1 12.2 0.00 0.00 0.00 54 1013.8
20260503054042 47 202 8.7 13.0 0.00 0.00 0.00 53 1013.7
20260503053528 47 206 8.7 10.4 0.00 0.00 0.00 53 1013.8
20260503053030 47 215 7.0 10.4 0.00 0.00 0.00 53 1013.7
20260503052525 47 209 6.1 8.7 0.00 0.00 0.00 53 1013.8
20260503052033 47 202 6.1 10.4 0.00 0.00 0.00 53 1013.9